sat.trackr.live / text

‹ back to catalog

KUIPER-00153

NORAD 65773 · 2025-217M

PAYLOAD ACTIVE UNKNOWN

§ Identity

Operator
Country
US
Launch date
2025-09-25
Launch site
AFETR
Launch vehicle
Mass (kg)
RCS (m²)

External: N2YO · Heavens-Above · Gunter

§ Orbital elements

Epoch: 2026-05-25T00:15:52.271424Z

Period
97.30 min
Inclination
51.9032°
Eccentricity
0.0000932
Mean motion
14.79917292 rev/d
Perigee alt
628.9 km
Apogee alt
630.2 km
Semi-major
7,007.7 km
B*
4.1925e-4
RAAN
48.1724°
Arg perigee
108.7087°
Mean anomaly
251.3977°
Rev number
3,642

§ Raw data

KUIPER-001531 65773U 25217M   26145.01102166  .00002975  00000+0  41925-3 0  99962 65773  51.9032  48.1724 0000932 108.7087 251.3977 14.79917292 36421

JSON: /api/v1/satellites/65773 · /tle

For live sub-satellite position, see the globe view (requires WebGL).

§ Visibility from observer

Set your observer location to see the next 7 days of passes ≥ 10°. The values pass through the URL so the page stays shareable.

No JS? Fill the form by hand. The geolocation button needs JavaScript.